Regional Weather Roundup
Issued by NWS

Current Version | Previous Version | Text Only | Print | Product List | Glossary On
Versions: 1 2 3 4 5 6 7 8 9 10 11 12 13 14 15 16 17 18 19 20 21 22 23 24 25 26 27 28 29 30 31 32 33 34 35 36 37 38 39 40 41 42 43 44 45 46 47 48 49 50
000
ASUS43 KLOT 010708
RWRIL

ILLINOIS REGIONAL WEATHER ROUNDUP
NATIONAL WEATHER SERVICE CHICAGO/ROMEOVILLE IL
100 AM CST MON MAR 01 2021

NOTE: "FAIR" INDICATES FEW OR NO CLOUDS BELOW 12,000 FEET WITH NO
SIGNIFICANT WEATHER AND/OR OBSTRUCTIONS TO VISIBILITY.

* THESE STATIONS ARE NOT UNDER NWS QUALITY CONTROL. THEY ALSO MAY NOT
  REPORT WEATHER SUCH AS PRECIPITATION OR FOG.

ILZ001-002-007-009-015-016-024-010800-
NORTHWEST ILLINOIS

CITY           SKY/WX    TMP DP  RH WIND       PRES   REMARKS
MOLINE         CLEAR     28  19  69 NW13      30.11R WCI  17
STERLING*      CLEAR     26  23  88 W14       30.07R WCI  14
SAVANNA*       CLEAR     27  19  74 NW9       30.08R WCI  17
$$

ILZ003-004-008-010-011-017-018-010800-
NORTH CENTRAL ILLINOIS

CITY           SKY/WX    TMP DP  RH WIND       PRES   REMARKS
ROCKFORD       CLEAR     29  20  69 NW14G20   30.05R WCI  18
FREEPORT*      CLEAR     25  19  76 NW16      30.06R WCI  13
ROCHELLE*      CLEAR     26  24  95 W9        30.04R WCI  16
DE KALB*       CLEAR     28  25  87 W17G25    30.02R WCI  16
PERU*            N/A     29  26  86 W10       30.06R WCI  20
$$

ILZ005-006-012>014-019>023-010800-
NORTHEAST ILLINOIS

CITY           SKY/WX    TMP DP  RH WIND       PRES   REMARKS
CHICAGO-OHARE  CLEAR     32  26  78 W9        29.98R WCI  24
CHICAGO-MIDWAY CLEAR     33  25  72 W12       29.99R WCI  24
AURORA         CLEAR     28  23  81 W13       30.01R WCI  17
JOLIET*        CLEAR     32  28  84 NW6       30.02R WCI  27
WAUKEGAN       CLEAR     32  22  66 NW8       29.96R WCI  25
DUPAGE AIRPORT CLEAR     30  24  78 W13       29.99R WCI  20
KANKAKEE*      CLEAR     32  30  92 NW13G18   30.02R WCI  22
WHEELING       CLEAR     33  26  75 W14G21    29.99R WCI  23
MORRIS*        CLEAR     31  28  90 W14       30.01R WCI  21
ROMEOVILLE*    CLEAR     31  28  88 NW17G23   30.01R WCI  19
LANSING*       CLEAR     33  28  83 NW9       29.99R WCI  25
NORTHERLY ISL*   N/A     34  26  73 W9          N/A  WCI  27
$$

LMZ740>746-010800-
SOUTHERN LAKE MICHIGAN

STATION/POSITION SKY/WX   TEMP    WIND        PRES    VSBY  WAVE
                          AIR SEA DIR/SP/G                  HT/PER
                          (F)     (DEG/KT/KT) (MB)    (MI)  (FT/S)
HARRISON CRIB              35     290/ 18/ 20   N/A
NORTHERLY ISL              34     270/ 11/ 16   N/A
CALUMET HARBOR                    280/  5/  9 1014.5R
BURNS HARBOR               35     300/  8/  9 1015.6R
MICHIGAN CITY              35     290/ 14/ 17   N/A
$$

ILZ025>027-034>036-040-047-049-050-058-095>099-010800-
WEST-CENTRAL ILLINOIS

CITY           SKY/WX    TMP DP  RH WIND       PRES   REMARKS
QUINCY         CLEAR     30  25  81 NW10      30.15R WCI  21
GALESBURG*     CLEAR     26  21  83 NW12G17   30.12R WCI  15
MACOMB*        CLEAR     28  25  86 NW12      30.15R WCI  18
JACKSONVILLE*  CLEAR     31  28  90 NW7       30.14R WCI  24
PITTSFIELD*    CLEAR     32  28  87 NW3       30.16R
$$

ILZ028>032-037-038-041>044-048-051>054-059>061-010800-
CENTRAL ILLINOIS

CITY           SKY/WX    TMP DP  RH WIND       PRES   REMARKS
PONTIAC        CLEAR     31  28  88 W14       30.06R WCI  21
BLOOMINGTON    CLEAR     29  28  96 NW15      30.07R WCI  18
DECATUR        PTCLDY    32  30  92 NW13G23   30.08R WCI  22
PEORIA         CLEAR     30  24  78 NW6       30.10R WCI  24
LACON*         CLEAR     29  25  84 W10       30.08R WCI  20
LINCOLN*       CLEAR     32  28  87 NW5       30.11R WCI  27
SPRINGFIELD    CLEAR     32  26  78 NW12G20   30.12R WCI  23
TAYLORVILLE    PTCLDY    32  28  86 NW6       30.11R WCI  26
$$

ILZ033-039-045-046-055>057-062-063-010800-
EAST-CENTRAL ILLINOIS

CITY           SKY/WX    TMP DP  RH WIND       PRES   REMARKS
CHAMPAIGN      PTCLDY    32  30  92 NW12      30.05R WCI  23
DANVILLE*      PTCLDY    34  32  92 NW13      30.04R WCI  25
RANTOUL*       PTCLDY    32  30  93 NW17      30.05R WCI  20
MATTOON        PTCLDY    34  31  88 NW17      30.05R WCI  23
PARIS*         MOCLDY    33  32  95 NW9       30.06R WCI  26
$$

ILZ079-100>102-010800-
SOUTHWEST ILLINOIS

CITY           SKY/WX    TMP DP  RH WIND       PRES   REMARKS
ALTON          PTCLDY    35  32  88 NW12G21   30.14R WCI  27
BELLEVILLE     MOCLDY    36  35  97 NW7       30.12R WCI  31
CAHOKIA*       PTCLDY    38  32  79 NW15G22   30.14R WCI  29
$$

ILZ064>066-069>071-074>076-080>082-084>086-088>090-092>094-010800-
SOUTH-CENTRAL ILLINOIS

CITY           SKY/WX    TMP DP  RH WIND       PRES   REMARKS
CARBONDALE     CLOUDY    42  34  73 N18       30.10R
CAIRO*         CLOUDY    46  37  70 MISG      30.07R
EFFINGHAM*     MOCLDY    36  32  86 W10       30.10R WCI  28
MARION         CLOUDY    41  36  81 N13G21    30.10R
MT. VERNON     CLOUDY    39  36  89 CALM      30.10R
CENTRALIA*     CLOUDY    38  34  84 NW13      30.09R WCI  31
SALEM*         CLOUDY    38  34  84 NW13G20   30.10R WCI  30
$$

ILZ067-068-072-073-078-083-087-091-010800-
SOUTHEAST ILLINOIS

CITY           SKY/WX    TMP DP  RH WIND       PRES   REMARKS
LAWRENCEVILLE  CLOUDY    40  34  79 NW15      30.05R
FLORA*         CLOUDY    37  34  87 NW12      30.08R WCI  30
FAIRFIELD*     CLOUDY    39  33  79 NW6       30.06R WCI  35
HARRISBURG*    CLOUDY    43  36  75 NW9       30.08R
ROBINSON*      CLOUDY    38  33  83 NW13G21   30.06R WCI  30
CARMI*         CLOUDY    41  36  81 NW14      30.05R
$$

ABBREVIATIONS USED IN REMARKS
   TC - TEMPERATURE IN CELSIUS
  WCI - WIND CHILL INDEX
   HX - HEAT INDEX
  VSB - VISIBILITY
$$





USA.gov is the U.S. government's official web portal to all federal, state and local government web resources and services.